Location: Bois de la Silve
(44.4667°N, 6.7833°E)
Time: 21:10:03
(UTC+00:00)

Cosmos 2360 Rocket - Pass Details

Date: 14 July 2020
Orbit: 832 x 846 km, 71.0° (Epoch: 14 August)

Event Time Altitude Azimuth Distance (km) Brightness Sun altitude
Rises 03:17:12 0° 339° (NNW) 3,417 5.6 -7.3°
Reaches altitude 10° 03:19:48 10° 346° (NNW) 2,478 5.0 -6.9°
Maximum altitude 03:25:12 43° 57° (ENE) 1,184 3.7 -6.2°
Drops below altitude 10° 03:30:33 10° 128° (SE) 2,463 4.8 -5.4°
Sets 03:33:07 0° 135° (SE) 3,393 5.4 -5.0°
